Ana Sayfa
METAR-TAF:

METAR-TAF

Havaalanları :

Altus, Oklahoma, Amerika Birleşik Devletleri

Enlem: 34-41-55N, Boylam: 099-20-17W, yükseklik: 437 m

Güncel hava durumu gözlemi

Rapor saat 08:15 UTC de 23 dakika önce yapıldı.
Rüzgar kuzey/kuzeydoğudan 9 kt
Sıcaklık 6°C
Nem 61%
Basınç 1027 hPa
Görüş mesafesi: 16.1 km
Açık gökyüzü

METAR: KAXS 280815Z AUTO 03009KT 10SM CLR 06/M01 A3033 RMK AO2 T00551007

Saat: 02:38 (08:38 UTC)


TAF: eksik

4.000'den fazla havaalanı için hava durumu gözlemleri ve tahminleri (METAR ve TAF raporları).

Kullanılabilir istasyonlar harita üzerinde sarı ve kırmızı noktalarla gösterilir.

İstasyonun adını görmek için fareyi noktanın üzerinde gezdirin.

Sonrasında hava gözlem ve tahminlerini görmek için tıklayın.

Haritayı değiştirmek için: yaklaştırmak için siyah artı işaretli yeşil düğmeye ve uzaklaştırmak için de eksi işaretli düğmeye hızla tıklayın; bitişik haritalar için yeşil okları kullanın.


METAR-TAF: